Regional Weather Roundup
Issued by NWS Little Rock, AR

Home | Current Version | Previous Version | Text Only | Print | Product List | Glossary On
Versions: 1 2 3 4 5 6 7 8 9 10 11 12 13 14 15 16 17 18 19 20 21 22 23 24 25 26 27 28 29 30 31 32 33 34 35 36 37 38 39 40 41 42 43 44 45 46 47 48 49 50
000
ASUS44 KLZK 291005
RWRLZK

WEATHER ROUNDUP FOR ARKANSAS
NATIONAL WEATHER SERVICE LITTLE ROCK AR
500 AM CDT FRI JUL 29 2016

NOTE: "FAIR" INDICATES FEW OR NO CLOUDS BELOW 12,000 FEET WITH NO
SIGNIFICANT WEATHER AND/OR OBSTRUCTIONS TO VISIBILITY.

ARZ001-003-010-029-291100-
NORTHWEST ARKANSAS

CITY           SKY/WX    TMP DP  RH WIND       PRES   REMARKS
FAYETTEVILLE   CLEAR     72  72 100 S5        29.94S
FORT SMITH     CLEAR     78  72  81 SW6       29.91F
HARRISON       CLEAR     71  69  93 SE5       29.94F
BENTONVILLE    CLEAR     73  70  88 SW3       29.94F
ROGERS         CLEAR     73  72  96 CALM      29.94F
SILOAM SPGS    CLEAR     72  63  73 SW5       29.95F
HIGHFILL       CLEAR     73  73 100 SW7       29.93F FOG
$$

ARZ004-005-016-291100-
NORTH CENTRAL ARKANSAS

CITY           SKY/WX    TMP DP  RH WIND       PRES   REMARKS
BATESVILLE     CLEAR     75  72  88 CALM      29.92S
FLIPPIN        CLEAR     72  68  88 CALM      29.89F
MTN HOME       PTCLDY    70  68  93 CALM      29.92F
$$

ARZ040-041-291100-
WEST CENTRAL ARKANSAS

CITY           SKY/WX    TMP DP  RH WIND       PRES   REMARKS
MENA             N/A    N/A N/A N/A MISG        N/A
MOUNT IDA      CLEAR     74  73  97 CALM      29.93F
$$

ARZ009-017-025-026-028-291100-
NORTHEAST ARKANSAS

CITY           SKY/WX    TMP DP  RH WIND       PRES   REMARKS
CORNING          N/A     72  72 100 S3        29.91F
JONESBORO      CLOUDY    77  75  93 SW9       29.91F
NEWPORT        CLOUDY    77  77 100 SW8       29.92F
WALNUT RIDGE   MOCLDY    73  70  88 CALM      29.90S
BLYTHEVILLE    CLOUDY    76  74  93 SW10G17   29.92S
$$

ARZ022-023-033-042-044-291100-
CENTRAL ARKANSAS

CITY           SKY/WX    TMP DP  RH WIND       PRES   REMARKS
LITTLE ROCK    CLOUDY    76  72  87 SW8       29.94F
N LITTLE ROCK    N/A     73  71  94 SW3       29.91F
JACKSONVILLE   CLEAR     75  74  99 S1        29.93F
SEARCY         MOCLDY    74  74 100 S7        29.94F
HOT SPRINGS    PTCLDY    73  72  96 CALM      29.96F
RUSSELLVILLE   CLEAR     76  75  97 CALM      29.92S
$$

ARZ036-291100-
EAST ARKANSAS

CITY           SKY/WX    TMP DP  RH WIND       PRES   REMARKS
WEST MEMPHIS   CLOUDY    75  73  93 SW6       29.94F
$$

ARZ050-053-066-070-073-291100-
SOUTHWEST ARKANSAS

CITY           SKY/WX    TMP DP  RH WIND       PRES   REMARKS
ARKADELPHIA    CLOUDY    73  72  96 SW7       29.97F FOG
CAMDEN         PTCLDY    72  68  88 CALM      29.99S
TEXARKANA      MOCLDY    72  71  97 S6        30.00S
EL DORADO      CLOUDY    72  71  97 S3        30.00F
DE QUEEN       CLOUDY    73  73 100 SW5       29.95F FOG
$$

ARZ056-057-069-291100-
SOUTHEAST ARKANSAS

CITY           SKY/WX    TMP DP  RH WIND       PRES   REMARKS
PINE BLUFF     CLOUDY    72  71  97 SW9       29.97S
STUTTGART      CLOUDY    73  70  88 S8        29.96S
MONTICELLO     MOCLDY    75  72  90 SW6       29.99S

$$





USA.gov is the U.S. government's official web portal to all federal, state and local government web resources and services.